TOKI (42820 NORAD) Tracking and Keplerian Element Data

This shows tracking and keplerian element data for the satellite.

Feedback or suggestion? Click here.




ElementValue
Catalog42820
NameTOKI
Epoch Orbit8272
Epoch Day351.63241332
Epoch Year2018
RAAN140.9356
Inclination51.6309
Eccentricity0.0002465
Argument of Perigee185.4967
Mean Anonmoly174.6007
Mean Motion15.7895795
Decay Rate0.00044704
L11 42820U 98067MU 18351.63241332 .00044704 00000-0 24920-3 0 9997
L22 42820 51.6309 140.9356 0002465 185.4967 174.6007 15.78957950 82727

Live tracking and technical data element details for TOKI (NORAD 42820). TOKI can be tracked NOW for your location showing map with azimuth and elevation plus other details from your city location.

Track the satellite on the map from your city or location and see movement details for azimuth, elevation, latitude, longitude, range, height, and movement on the map or in text.







IsCatalogInMostPopularTable: catalog: 42820, numindb: 170
Update: records affected: 1



GetName: 42820 TOKI

Hit Count: updated at: Tue, 18 Dec 2018 21:04:48 GMT